Zurück zum Katalog

GLOBALSTAR M056

AktivKommunikationLEO
NORAD 25945·PAYLOAD·🇺🇸 United States

Gestartet Oct 18, 1999 von Baikonur Cosmodrome

Loading…

Nächste Überflüge (nächste 24 Stunden)

TLE

AktuellSource: Space-Track

Epoche: Sep 14, 2026, 20:14 UTC

1 25945U 99058C   26257.84372541 -.00000039  00000-0  56380-3 0  9990
2 25945  51.9971  47.4622 0001141  30.7504 135.4511 12.04789461217428

Verfolge GLOBALSTAR M056 in Echtzeit mit AllMySat

Download on the App Store